パンスターズ彗星

C/2015 D3 ( PanSTARRS )

English version
Home page
Updated on April 13, 2018

---------------------------------------------------------------------

・ プロフィール

発見日 2015年2月19日
発見光度 20.4等
発見者 Pan-STARRS 1 telescope (Haleakala)

・ 写真集

・ 軌道要素

Epoch 2016 May 12.0 TT = JDT 2457520.5
T 2016 Apr. 30.78805 TT                                 MPCW
q   8.1487304            (2000.0)            P               Q
z  -0.0003023      Peri.    2.84984     -0.90712770     +0.28893961
 +/-0.0000010      Node   156.98045     +0.36899837     +0.19640766
e   1.0024631      Incl.  128.50933     +0.20238461     +0.93698342
From 254 observations 2013 Apr. 8-2018 Mar. 4, mean residual 0".5.

・ 光度変化

        m1 = 5.0 + 5 logΔ + 10.0 log r

---------------------------------------------------------------------

軌道要素はM.P.E.C. 2018-F152に掲載されたものです。
光度グラフはComet for Windowsで作成したものです。

---------------------------------------------------------------------

Copyright(C) Seiichi Yoshida (comet@aerith.net). All rights reserved.